World > North America > United States > New York

Hourly Upper Nyack, NY Regional Weather

Feedback E-mail the Weather

Quick WX

Upper Nyack, NY Weather Maps

°F °C°F °C
Upper Nyack Weather Map
UTC Time: 7/1/2022, 07:55
Your Time:

Upper Nyack, NY Regional Weather

Expires:202207010800;;479789
ASUS41 KALY 010710
RWRALY

NEW YORK STATE HOURLY WEATHER ROUNDUP
NATIONAL WEATHER SERVICE ALBANY NY
300 AM EDT FRI JUL 01 2022

NOTE: "FAIR" INDICATES FEW OR NO CLOUDS BELOW 12,000 FEET WITH NO
SIGNIFICANT WEATHER AND/OR NO OBSTRUCTIONS TO VISIBILITY.


NYZ032-033-038>043-046>054-057>066-NYZ062>081-082-084-010800-
EAST

  
CITY           SKY/WX    TMP DP  RH WIND       PRES   REMARKS
ALBANY         PTCLDY    71  59  65 S7        30.06F                  
GLENS FALLS    CLEAR     59  56  89 CALM      30.05F                  
POUGHKEEPSIE   CLEAR     63  59  87 CALM      30.08F                  
NEWBURGH       CLEAR     66  59  77 CALM      30.10F                  
MONTGOMERY     CLEAR     62  59  90 CALM      30.09F                  
WHITE PLAINS   CLEAR     68  66  93 NW3       30.11F                  
ISLIP          CLEAR     68  65  90 W3        30.10F                  
NEW YORK CITY  PTCLDY    77  59  53 SW7       30.09F                  
CENTRAL PARK   CLEAR     75  61  61 VRB3      30.13F                  
$$


SKY/WX - Weather  TMP - Temperature  DP - Dew Point  RH - Humidity
WIND - Wind Direction/Speed PRES - Barometric Pressure VSB - Visibility
WCI - Wind Chill Index E13G22 Wind - East Wind 13 mph/Gusts of 22 mph

Trending Headlines

Upper Nyack Radar Loop



Upper Nyack Quick Facts


National Two Day Weather Forecast


E-mail the Upper Nyack Weather Forecast

Voice your opinion or tell us about page issues...